Regional Weather Roundup
Issued by NWS Northern Indiana

Home | Current Version | Previous Version | Graphics & Text | Print | Product List | Glossary On
Versions: 1 2 3 4 5 6 7 8 9 10 11 12 13 14 15 16 17 18 19 20 21 22 23 24 25 26 27 28 29 30 31 32 33 34 35 36 37 38 39 40 41 42 43 44 45 46 47 48 49 50
000
ASUS43 KIWX 272000
RWRIWX

KIWX WEATHER ROUNDUP
NATIONAL WEATHER SERVICE NORTHERN INDIANA
300 PM EST FRI FEB 27 2015

NOTE: "FAIR" INDICATES FEW OR NO CLOUDS BELOW 12,000 FEET WITH NO
SIGNIFICANT WEATHER AND/OR OBSTRUCTIONS TO VISIBILITY.

* THESE STATIONS ARE NOT UNDER NWS QUALITY CONTROL. THEY ALSO MAY NOT
  REPORT WEATHER SUCH AS PRECIPITATION OR FOG.

INZ001>027-272100-
NORTHERN INDIANA

CITY           SKY/WX    TMP DP  RH WIND       PRES   REMARKS
GARY*          SUNNY     18  -8  32 W9        30.61  WCI   6
SOUTH BEND     SUNNY     18   1  47 W9        30.58S WCI   7
GOSHEN         SUNNY     16   1  51 SW7       30.57S WCI   6
ANGOLA*        SUNNY     18   0  45 VRB7      30.55R WCI   8
FORT WAYNE     MOSUNNY   18   1  47 W9        30.58S WCI   7

$$
INZ028>050-272100-
CENTRAL INDIANA

CITY           SKY/WX    TMP DP  RH WIND       PRES   REMARKS
LAFAYETTE      SUNNY     15  -1  49 NW8       30.62S WCI   4
KOKOMO*        SUNNY     16   9  73 W10       30.59S WCI   3
MUNCIE*        SUNNY     16   2  54 W5        30.58S WCI   9
INDIANAPOLIS   MOSUNNY   17   0  47 NW9       30.58F WCI   6

$$
MIZ043>046-050>051-056>058-064>065-071>073-077>080-272100-
SOUTHWEST LOWER MICHIGAN

CITY           SKY/WX    TMP DP  RH WIND       PRES   REMARKS
BATTLE CREEK   CLOUDY    18   2  49 W13       30.53S WCI   5
BENTON HARBOR  SUNNY     15   4  61 W12       30.58S WCI   2
COLDWATER*     PTSUNNY   18  -1  43 W10       30.54S WCI   6
HILLSDALE*     SUNNY     15  -4  42 W7        30.52S WCI   6
HOLLAND        CLOUDY    20   7  57 W14       30.56R WCI   7
GRAND RAPIDS   CLOUDY    17   6  62 W14       30.53S WCI   3
KALAMAZOO      CLOUDY    18   2  49 W13       30.55R WCI   5
STURGIS*       PTSUNNY   16   1  53 W7        30.55R WCI   6
THREE RIVERS*  CLOUDY    17   2  51 W7        30.56S WCI   8

$$
OHZ001>008-015>018-024>025-272100-
NORTHWEST OHIO

CITY           SKY/WX    TMP DP  RH WIND       PRES   REMARKS
DEFIANCE       SUNNY     17  -2  43 SW8       30.59S WCI   7
FINDLAY        SUNNY     14  -1  51 W10       30.57S WCI   1
TOLEDO EXPRESS SUNNY     14  -2  49 W6        30.58R WCI   5
TOLEDO METCALF SUNNY     14   0  53 SW13      30.59R WCI   0
LIMA           SUNNY     16  -1  47 W9        30.56S WCI   4

$$
AND FOR LAKE MICHIGAN COASTAL AND OPEN LAKE BUOY OBSERVATIONS

STATION/POSITION TEMP    WIND        PRES    VSBY  WAVE
                 AIR SEA DIR/SP/G                  HT/PER
                 (F)     (DEG/KT/KT) (MB)    (MI)  (FT/S)
CALUMET HARBOR    17     280/  5/  8 1034.5F
MICHIGAN CITY     14     250/ 11/ 13   N/A
SAINT JOSEPH      19     210/ 11/ 18 1035.9F

$$
&&



USA.gov is the U.S. government's official web portal to all federal, state and local government web resources and services.